Tracking 19634 objects as of 23-May-2019
HD Live streaming from Space Station
objects crossing your sky now

FLOCK 3P 12

Track FLOCK 3P 12 now!
10-day predictions
FLOCK 3P 12 is classified as:


NORAD ID: 41972
Int'l Code: 2017-008AA
Perigee: 492.4 km
Apogee: 501.4 km
Inclination: 97.4 °
Period: 94.4 minutes
Semi major axis: 6867 km
RCS: Unknown
Launch date: February 15, 2017
Source: United States (US)
Launch site: SRIHARIKOTA (SRI)
aabbcc
Your satellite tracking list
Your tracking list is empty




NASA's NSSDC Master Catalog

Two Line Element Set (TLE):
1 41972U 17008AA  19142.41314302  .00001034  00000-0  43865-4 0  9992
2 41972  97.4080 209.6743 0006575 230.5299 129.5358 15.25350962125725
Source of the keplerian elements: AFSPC